ALDINGEN Weather Reports


time (UTC)temp
F
wind
direction
speed
knots
gust
knots
rain 1hr
in
rain 24hr
in
rain mn
in
humidity
%
barometer
mb
20260506023211 44 109 1.7 0.0 0.00 0.00 0.00 93 1007.1
20260506020212 45 182 0.0 0.0 0.00 0.00 0.00 93 1007.0
20260506013211 46 202 0.0 0.0 0.00 0.00 0.00 92 1007.1
20260506010212 47 107 4.3 0.0 0.00 0.00 0.00 94 1007.5
20260506003209 47 94 0.0 0.0 0.00 0.00 0.00 92 1007.4
20260506000211 48 94 0.0 0.0 0.00 0.00 0.00 91 1007.6
20260505233209 48 97 2.6 0.0 0.00 0.00 0.00 91 1008.0
20260505230209 48 91 0.0 0.0 0.00 0.00 0.00 92 1008.0
20260505223209 48 90 0.0 0.0 0.00 0.00 0.00 93 1008.0
20260505220209 48 112 0.9 0.0 0.00 0.00 0.00 92 1008.1
20260505213211 49 110 0.0 0.0 0.00 0.00 0.14 90 1008.3
20260505210215 51 69 1.7 0.0 0.00 0.00 0.14 88 1008.2
20260505203209 51 108 3.5 0.0 0.00 0.00 0.14 91 1007.9
20260505200210 52 196 2.6 0.0 0.00 0.00 0.14 90 1007.7
20260505193209 52 248 0.9 0.0 0.00 0.00 0.14 89 1007.2
20260505190215 53 210 1.7 0.0 0.00 0.00 0.14 87 1007.3
20260505183212 53 194 0.0 0.0 0.00 0.00 0.14 87 1007.1
20260505180211 54 128 1.7 0.0 0.00 0.00 0.14 86 1006.9
20260505173210 54 93 0.0 0.0 0.00 0.00 0.14 86 1007.1
20260505170210 53 206 1.7 0.0 0.00 0.00 0.14 86 1006.9
20260505163211 53 178 1.7 0.0 0.00 0.00 0.13 84 1006.8
20260505153210 61 226 3.5 0.0 0.00 0.00 0.08 67 1006.1
20260505150215 61 311 2.6 0.0 0.00 0.00 0.08 67 1005.9
20260505140210 59 102 3.5 0.0 0.00 0.00 0.08 77 1006.2
20260505130210 55 130 1.7 0.0 0.00 0.00 0.08 81 1006.9
20260505123210 55 114 3.5 0.0 0.00 0.00 0.07 83 1007.3
20260505120210 55 76 0.0 0.0 0.00 0.00 0.06 82 1007.3
20260505113210 56 87 0.0 0.0 0.00 0.00 0.05 77 1007.4
20260505110211 56 212 1.7 0.0 0.00 0.00 0.04 82 1007.3
20260505100212 57 216 2.6 0.0 0.00 0.00 0.01 80 1007.4
20260505093212 59 334 3.5 0.0 0.00 0.00 0.00 70 1007.3
20260505090211 59 300 2.6 0.0 0.00 0.00 0.00 68 1007.2
20260505083211 59 315 0.0 0.0 0.00 0.00 0.00 68 1007.2
20260505080210 58 69 1.7 0.0 0.00 0.00 0.00 74 1007.3
20260505073210 56 54 3.5 0.0 0.00 0.00 0.00 80 1007.7
20260505070211 54 49 0.0 0.0 0.00 0.00 0.00 81 1007.9
20260505063211 54 257 0.0 0.0 0.00 0.00 0.00 82 1008.0
20260505060212 53 82 0.0 0.0 0.00 0.00 0.00 83 1008.1
20260505053211 50 82 0.0 0.0 0.00 0.00 0.00 86 1008.2
20260505050211 49 355 0.0 0.0 0.00 0.00 0.00 88 1008.4
20260505040210 47 355 0.0 0.0 0.00 0.00 0.00 90 1008.7
20260505033211 47 355 0.0 0.0 0.00 0.00 0.00 90 1008.8
20260505030213 48 355 0.0 0.0 0.00 0.00 0.00 89 1008.8